Time,TemperatureF,DewpointF,PressureIn,WindDirection,WindDirectionDegrees,WindSpeedMPH,WindSpeedGustMPH,Humidity,HourlyPrecipIn,Conditions,Clouds,dailyrainin,SoftwareType,DateUTC
2013-02-25 00:01:00,30.0,25.0,30.13,West,265,0.0,1.0,80,0.00,,,0.00,,2013-02-25 05:01:00,
2013-02-25 00:11:00,30.0,25.0,30.13,West,265,0.0,1.0,80,0.00,,,0.00,,2013-02-25 05:11:00,
2013-02-25 00:22:00,30.0,25.0,30.13,West,265,0.0,1.0,80,0.00,,,0.00,,2013-02-25 05:22:00,
2013-02-25 00:32:00,29.0,24.0,30.13,WSW,246,0.0,1.0,82,0.00,,,0.00,,2013-02-25 05:32:00,
2013-02-25 00:42:00,29.0,24.0,30.13,WSW,246,0.0,1.0,82,0.00,,,0.00,,2013-02-25 05:42:00,
2013-02-25 00:52:00,29.0,24.0,30.13,WSW,246,0.0,1.0,82,0.00,,,0.00,,2013-02-25 05:52:00,
2013-02-25 01:02:00,28.0,24.0,30.13,WSW,245,0.0,1.0,83,0.00,,,0.00,,2013-02-25 06:02:00,
2013-02-25 01:11:00,28.0,24.0,30.13,WSW,245,0.0,1.0,83,0.00,,,0.00,,2013-02-25 06:11:00,
2013-02-25 01:21:00,28.0,24.0,30.13,SW,227,1.0,2.0,84,0.00,,,0.00,,2013-02-25 06:21:00,
2013-02-25 01:32:00,28.0,24.0,30.14,WSW,249,0.0,2.0,84,0.00,,,0.00,,2013-02-25 06:32:00,
2013-02-25 01:42:00,28.0,24.0,30.14,WSW,249,0.0,2.0,84,0.00,,,0.00,,2013-02-25 06:42:00,
2013-02-25 01:51:00,28.0,24.0,30.14,WSW,249,1.0,2.0,84,0.00,,,0.00,,2013-02-25 06:51:00,
2013-02-25 02:01:00,28.0,24.0,30.14,SW,225,0.0,2.0,85,0.00,,,0.00,,2013-02-25 07:01:00,
2013-02-25 02:11:00,28.0,24.0,30.14,SW,225,0.0,2.0,85,0.00,,,0.00,,2013-02-25 07:11:00,
2013-02-25 02:21:00,28.0,24.0,30.14,SW,225,0.0,2.0,85,0.00,,,0.00,,2013-02-25 07:21:00,
2013-02-25 02:32:00,27.0,23.0,30.14,SW,221,0.0,1.0,86,0.00,,,0.00,,2013-02-25 07:32:00,
2013-02-25 02:42:00,27.0,23.0,30.14,SW,221,0.0,1.0,86,0.00,,,0.00,,2013-02-25 07:42:00,
2013-02-25 02:51:00,27.0,23.0,30.14,SW,221,0.0,1.0,86,0.00,,,0.00,,2013-02-25 07:51:00,
2013-02-25 03:01:00,26.0,23.0,30.14,SW,221,0.0,0.0,87,0.00,,,0.00,,2013-02-25 08:01:00,
2013-02-25 03:11:00,26.0,23.0,30.14,SW,221,0.0,1.0,89,0.00,,,0.00,,2013-02-25 08:11:00,
2013-02-25 03:21:00,26.0,23.0,30.14,SW,221,0.0,1.0,89,0.00,,,0.00,,2013-02-25 08:21:00,
2013-02-25 03:32:00,26.0,23.0,30.13,SW,221,0.0,0.0,88,0.00,,,0.00,,2013-02-25 08:32:00,
2013-02-25 03:42:00,26.0,23.0,30.13,SW,221,0.0,0.0,88,0.00,,,0.00,,2013-02-25 08:42:00,
2013-02-25 03:52:00,26.0,23.0,30.13,SW,221,0.0,0.0,88,0.00,,,0.00,,2013-02-25 08:52:00,
2013-02-25 04:02:00,25.0,22.0,30.13,SW,221,0.0,0.0,90,0.00,,,0.00,,2013-02-25 09:02:00,
2013-02-25 04:12:00,25.0,22.0,30.13,SW,221,0.0,0.0,90,0.00,,,0.00,,2013-02-25 09:12:00,
2013-02-25 04:21:00,25.0,22.0,30.13,SW,221,0.0,0.0,90,0.00,,,0.00,,2013-02-25 09:21:00,
2013-02-25 04:32:00,25.0,23.0,30.14,SW,221,0.0,1.0,91,0.00,,,0.00,,2013-02-25 09:32:00,
2013-02-25 04:42:00,25.0,23.0,30.14,SW,221,0.0,1.0,91,0.00,,,0.00,,2013-02-25 09:42:00,
2013-02-25 04:52:00,24.0,22.0,30.14,SW,221,0.0,1.0,91,0.00,,,0.00,,2013-02-25 09:52:00,
2013-02-25 05:01:00,25.0,23.0,30.14,SW,221,0.0,0.0,91,0.00,,,0.00,,2013-02-25 10:01:00,
2013-02-25 05:11:00,25.0,23.0,30.14,SW,221,0.0,0.0,91,0.00,,,0.00,,2013-02-25 10:11:00,
2013-02-25 05:21:00,25.0,23.0,30.14,SW,221,0.0,0.0,91,0.00,,,0.00,,2013-02-25 10:21:00,
2013-02-25 05:32:00,24.0,22.0,30.14,SW,221,0.0,0.0,91,0.00,,,0.00,,2013-02-25 10:32:00,
2013-02-25 05:42:00,24.0,22.0,30.14,SW,221,0.0,0.0,91,0.00,,,0.00,,2013-02-25 10:42:00,
2013-02-25 05:52:00,24.0,22.0,30.14,SW,221,0.0,1.0,91,0.00,,,0.00,,2013-02-25 10:52:00,
2013-02-25 06:01:00,24.0,22.0,30.16,SW,221,0.0,0.0,91,0.00,,,0.00,,2013-02-25 11:01:00,
2013-02-25 06:11:00,24.0,22.0,30.16,SW,221,0.0,0.0,91,0.00,,,0.00,,2013-02-25 11:11:00,
2013-02-25 06:22:00,24.0,22.0,30.16,SW,221,0.0,1.0,92,0.00,,,0.00,,2013-02-25 11:22:00,
2013-02-25 06:32:00,24.0,22.0,30.17,SW,218,0.0,1.0,92,0.00,,,0.00,,2013-02-25 11:32:00,
2013-02-25 06:42:00,24.0,22.0,30.17,SW,218,0.0,1.0,92,0.00,,,0.00,,2013-02-25 11:42:00,
2013-02-25 06:52:00,24.0,22.0,30.17,SW,218,0.0,1.0,92,0.00,,,0.00,,2013-02-25 11:52:00,
2013-02-25 07:02:00,23.0,21.0,30.18,SW,218,0.0,0.0,92,0.00,,,0.00,,2013-02-25 12:02:00,
2013-02-25 07:11:00,23.0,21.0,30.18,SW,218,0.0,0.0,92,0.00,,,0.00,,2013-02-25 12:11:00,
2013-02-25 07:22:00,23.0,21.0,30.18,SW,218,0.0,0.0,92,0.00,,,0.00,,2013-02-25 12:22:00,
2013-02-25 07:32:00,22.0,20.0,30.19,SW,218,0.0,0.0,92,0.00,,,0.00,,2013-02-25 12:32:00,
2013-02-25 07:42:00,22.0,20.0,30.19,SW,218,0.0,0.0,92,0.00,,,0.00,,2013-02-25 12:42:00,
2013-02-25 07:56:00,22.0,20.0,30.19,SW,218,0.0,0.0,92,0.00,,,0.00,,2013-02-25 12:56:00,
2013-02-25 08:02:00,23.0,21.0,30.20,SSW,202,0.0,0.0,93,0.00,,,0.00,,2013-02-25 13:02:00,
2013-02-25 08:12:00,23.0,21.0,30.20,SSW,202,0.0,0.0,93,0.00,,,0.00,,2013-02-25 13:12:00,
2013-02-25 08:23:00,23.0,21.0,30.20,SSW,202,0.0,0.0,93,0.00,,,0.00,,2013-02-25 13:23:00,
2013-02-25 08:32:00,27.0,26.0,30.20,SSW,202,0.0,0.0,94,0.00,,,0.00,,2013-02-25 13:32:00,
2013-02-25 08:42:00,27.0,26.0,30.20,SSW,202,0.0,0.0,94,0.00,,,0.00,,2013-02-25 13:42:00,
2013-02-25 08:52:00,29.0,27.0,30.20,SSW,202,0.0,0.0,93,0.00,,,0.00,,2013-02-25 13:52:00,
2013-02-25 09:03:00,30.0,28.0,30.20,SSW,202,0.0,0.0,92,0.00,,,0.00,,2013-02-25 14:03:00,
2013-02-25 09:17:00,30.0,28.0,30.20,SSW,202,0.0,0.0,92,0.00,,,0.00,,2013-02-25 14:17:00,
2013-02-25 09:32:00,34.0,29.0,30.20,South,169,2.0,2.0,81,0.00,,,0.00,,2013-02-25 14:32:00,
2013-02-25 09:42:00,34.0,29.0,30.20,South,169,2.0,2.0,81,0.00,,,0.00,,2013-02-25 14:42:00,
2013-02-25 09:52:00,34.0,29.0,30.20,South,169,2.0,2.0,81,0.00,,,0.00,,2013-02-25 14:52:00,
2013-02-25 10:03:00,35.0,27.0,30.20,SE,132,0.0,3.0,73,0.00,,,0.00,,2013-02-25 15:03:00,
2013-02-25 10:11:00,35.0,27.0,30.20,SE,132,0.0,3.0,73,0.00,,,0.00,,2013-02-25 15:11:00,
2013-02-25 10:22:00,36.0,28.0,30.20,East,88,0.0,3.0,73,0.00,,,0.00,,2013-02-25 15:22:00,
2013-02-25 10:32:00,36.0,26.0,30.19,ENE,67,3.0,4.0,67,0.00,,,0.00,,2013-02-25 15:32:00,
2013-02-25 10:42:00,36.0,26.0,30.19,ENE,67,3.0,4.0,67,0.00,,,0.00,,2013-02-25 15:42:00,
2013-02-25 10:51:00,35.0,25.0,30.19,East,92,1.0,4.0,67,0.00,,,0.00,,2013-02-25 15:51:00,
2013-02-25 11:02:00,36.0,25.0,30.19,East,82,1.0,4.0,65,0.00,,,0.00,,2013-02-25 16:02:00,
2013-02-25 11:12:00,36.0,25.0,30.19,East,82,1.0,4.0,65,0.00,,,0.00,,2013-02-25 16:12:00,
2013-02-25 11:22:00,36.0,25.0,30.19,East,82,1.0,4.0,65,0.00,,,0.00,,2013-02-25 16:22:00,
2013-02-25 11:32:00,38.0,27.0,30.19,ESE,105,3.0,6.0,63,0.00,,,0.00,,2013-02-25 16:32:00,
2013-02-25 11:42:00,38.0,27.0,30.19,ESE,105,3.0,6.0,63,0.00,,,0.00,,2013-02-25 16:42:00,
2013-02-25 11:52:00,38.0,25.0,30.19,NE,34,3.0,6.0,59,0.00,,,0.00,,2013-02-25 16:52:00,
2013-02-25 12:02:00,38.0,25.0,30.19,SE,136,1.0,3.0,60,0.00,,,0.00,,2013-02-25 17:02:00,
2013-02-25 12:11:00,38.0,25.0,30.19,SE,136,1.0,3.0,60,0.00,,,0.00,,2013-02-25 17:11:00,
2013-02-25 12:21:00,40.0,26.0,30.20,SSE,159,2.0,4.0,56,0.00,,,0.00,,2013-02-25 17:21:00,
2013-02-25 12:32:00,41.0,26.0,30.19,SW,232,5.0,5.0,54,0.00,,,0.00,,2013-02-25 17:32:00,
2013-02-25 12:42:00,41.0,26.0,30.19,SW,232,5.0,5.0,54,0.00,,,0.00,,2013-02-25 17:42:00,
2013-02-25 12:52:00,39.0,25.0,30.19,NW,311,2.0,5.0,57,0.00,,,0.00,,2013-02-25 17:52:00,
2013-02-25 13:02:00,38.0,25.0,30.19,NE,55,1.0,3.0,58,0.00,,,0.00,,2013-02-25 18:02:00,
2013-02-25 13:12:00,38.0,25.0,30.19,NE,55,1.0,3.0,58,0.00,,,0.00,,2013-02-25 18:12:00,
2013-02-25 13:21:00,38.0,25.0,30.19,NE,55,1.0,3.0,58,0.00,,,0.00,,2013-02-25 18:21:00,
2013-02-25 13:33:00,38.0,26.0,30.17,NE,44,2.0,5.0,62,0.00,,,0.00,,2013-02-25 18:33:00,
2013-02-25 13:42:00,38.0,26.0,30.17,NE,44,2.0,5.0,62,0.00,,,0.00,,2013-02-25 18:42:00,
2013-02-25 13:52:00,40.0,27.0,30.17,ENE,57,2.0,5.0,59,0.00,,,0.00,,2013-02-25 18:52:00,
2013-02-25 14:01:00,39.0,26.0,30.14,ENE,67,3.0,7.0,59,0.00,,,0.00,,2013-02-25 19:01:00,
2013-02-25 14:11:00,39.0,26.0,30.14,ENE,67,3.0,7.0,59,0.00,,,0.00,,2013-02-25 19:11:00,
2013-02-25 14:21:00,39.0,26.0,30.14,ENE,67,3.0,7.0,59,0.00,,,0.00,,2013-02-25 19:21:00,
2013-02-25 14:32:00,40.0,26.0,30.13,ENE,61,3.0,9.0,57,0.00,,,0.00,,2013-02-25 19:32:00,
2013-02-25 14:42:00,40.0,26.0,30.13,ENE,61,3.0,9.0,57,0.00,,,0.00,,2013-02-25 19:42:00,
2013-02-25 14:52:00,40.0,27.0,30.13,NW,311,3.0,9.0,59,0.00,,,0.00,,2013-02-25 19:52:00,
2013-02-25 15:01:00,40.0,26.0,30.12,NNW,338,3.0,7.0,58,0.00,,,0.00,,2013-02-25 20:01:00,
2013-02-25 15:11:00,40.0,26.0,30.12,NNW,338,3.0,7.0,58,0.00,,,0.00,,2013-02-25 20:11:00,
2013-02-25 15:21:00,40.0,26.0,30.12,NNE,26,3.0,7.0,58,0.00,,,0.00,,2013-02-25 20:21:00,
2013-02-25 15:32:00,39.0,25.0,30.12,ENE,59,3.0,10.0,58,0.00,,,0.00,,2013-02-25 20:32:00,
2013-02-25 15:42:00,39.0,25.0,30.12,ENE,59,3.0,10.0,58,0.00,,,0.00,,2013-02-25 20:42:00,
2013-02-25 15:52:00,39.0,25.0,30.12,NE,47,3.0,10.0,57,0.00,,,0.00,,2013-02-25 20:52:00,
2013-02-25 16:02:00,39.0,25.0,30.13,NW,325,2.0,10.0,58,0.00,,,0.00,,2013-02-25 21:02:00,
2013-02-25 16:11:00,39.0,25.0,30.13,NW,325,2.0,10.0,58,0.00,,,0.00,,2013-02-25 21:11:00,
2013-02-25 16:21:00,39.0,26.0,30.13,NE,49,3.0,10.0,59,0.00,,,0.00,,2013-02-25 21:21:00,
2013-02-25 16:32:00,38.0,25.0,30.12,NNW,336,3.0,7.0,60,0.00,,,0.00,,2013-02-25 21:32:00,
2013-02-25 16:42:00,38.0,25.0,30.12,NNW,336,3.0,7.0,60,0.00,,,0.00,,2013-02-25 21:42:00,
2013-02-25 16:51:00,38.0,26.0,30.12,NNE,32,5.0,7.0,61,0.00,,,0.00,,2013-02-25 21:51:00,
2013-02-25 17:01:00,37.0,25.0,30.13,NE,53,3.0,8.0,61,0.00,,,0.00,,2013-02-25 22:01:00,
2013-02-25 17:11:00,37.0,25.0,30.13,NE,53,3.0,8.0,61,0.00,,,0.00,,2013-02-25 22:11:00,
2013-02-25 17:21:00,37.0,25.0,30.13,NNE,15,2.0,8.0,62,0.00,,,0.00,,2013-02-25 22:21:00,
2013-02-25 17:32:00,36.0,26.0,30.13,ENE,59,4.0,8.0,66,0.00,,,0.00,,2013-02-25 22:32:00,
2013-02-25 17:42:00,36.0,26.0,30.13,ENE,59,4.0,8.0,66,0.00,,,0.00,,2013-02-25 22:42:00,
2013-02-25 17:51:00,36.0,26.0,30.13,NNE,28,3.0,8.0,66,0.00,,,0.00,,2013-02-25 22:51:00,
2013-02-25 18:01:00,34.0,24.0,30.12,ENE,59,3.0,11.0,66,0.00,,,0.00,,2013-02-25 23:01:00,
2013-02-25 18:11:00,34.0,24.0,30.12,ENE,59,3.0,11.0,66,0.00,,,0.00,,2013-02-25 23:11:00,
2013-02-25 18:22:00,34.0,24.0,30.12,NNW,327,2.0,11.0,67,0.00,,,0.00,,2013-02-25 23:22:00,
2013-02-25 18:32:00,34.0,25.0,30.11,NE,54,3.0,6.0,69,0.00,,,0.00,,2013-02-25 23:32:00,
2013-02-25 18:42:00,34.0,25.0,30.11,NE,54,3.0,6.0,69,0.00,,,0.00,,2013-02-25 23:42:00,
2013-02-25 18:52:00,33.0,24.0,30.11,NNE,29,3.0,6.0,70,0.00,,,0.00,,2013-02-25 23:52:00,
2013-02-25 19:02:00,32.0,24.0,30.11,NE,48,1.0,4.0,72,0.00,,,0.00,,2013-02-26 00:02:00,
2013-02-25 19:12:00,32.0,24.0,30.11,NE,48,1.0,4.0,72,0.00,,,0.00,,2013-02-26 00:12:00,
2013-02-25 19:22:00,32.0,24.0,30.11,NE,48,1.0,4.0,72,0.00,,,0.00,,2013-02-26 00:22:00,
2013-02-25 19:32:00,32.0,25.0,30.12,NNE,28,0.0,3.0,76,0.00,,,0.00,,2013-02-26 00:32:00,
2013-02-25 19:42:00,32.0,25.0,30.12,NNE,28,0.0,3.0,76,0.00,,,0.00,,2013-02-26 00:42:00,
2013-02-25 19:52:00,32.0,26.0,30.12,NNE,13,1.0,3.0,77,0.00,,,0.00,,2013-02-26 00:52:00,
2013-02-25 20:02:00,31.0,25.0,30.12,NNE,21,0.0,1.0,78,0.00,,,0.00,,2013-02-26 01:02:00,
2013-02-25 20:11:00,31.0,25.0,30.12,NNE,21,0.0,1.0,78,0.00,,,0.00,,2013-02-26 01:11:00,
2013-02-25 20:21:00,30.0,24.0,30.12,NNE,19,0.0,1.0,79,0.00,,,0.00,,2013-02-26 01:21:00,
2013-02-25 20:32:00,30.0,25.0,30.13,NNE,19,0.0,0.0,80,0.00,,,0.00,,2013-02-26 01:32:00,
2013-02-25 20:42:00,30.0,25.0,30.13,NNE,19,0.0,0.0,80,0.00,,,0.00,,2013-02-26 01:42:00,
2013-02-25 20:52:00,30.0,25.0,30.13,NE,56,0.0,1.0,82,0.00,,,0.00,,2013-02-26 01:52:00,
2013-02-25 21:01:00,31.0,25.0,30.12,ENE,70,2.0,4.0,79,0.00,,,0.00,,2013-02-26 02:01:00,
2013-02-25 21:11:00,31.0,25.0,30.12,ENE,70,2.0,4.0,79,0.00,,,0.00,,2013-02-26 02:11:00,
2013-02-25 21:21:00,32.0,25.0,30.12,East,86,1.0,4.0,76,0.00,,,0.00,,2013-02-26 02:21:00,
2013-02-25 21:32:00,32.0,25.0,30.11,NE,51,1.0,5.0,76,0.00,,,0.00,,2013-02-26 02:32:00,
2013-02-25 21:42:00,32.0,25.0,30.11,NE,51,1.0,5.0,76,0.00,,,0.00,,2013-02-26 02:42:00,
2013-02-25 21:52:00,32.0,25.0,30.09,ENE,67,1.0,5.0,75,0.00,,,0.00,,2013-02-26 02:52:00,
2013-02-25 22:02:00,31.0,24.0,30.06,ENE,67,2.0,4.0,76,0.00,,,0.00,,2013-02-26 03:02:00,
2013-02-25 22:12:00,31.0,24.0,30.06,ENE,67,2.0,4.0,76,0.00,,,0.00,,2013-02-26 03:12:00,
2013-02-25 22:22:00,31.0,24.0,30.06,ENE,66,3.0,4.0,75,0.00,,,0.00,,2013-02-26 03:22:00,
2013-02-25 22:32:00,31.0,24.0,30.05,ENE,75,0.0,3.0,76,0.00,,,0.00,,2013-02-26 03:32:00,
2013-02-25 22:42:00,31.0,24.0,30.05,ENE,75,0.0,3.0,76,0.00,,,0.00,,2013-02-26 03:42:00,
2013-02-25 22:52:00,30.0,23.0,30.05,East,90,0.0,3.0,76,0.00,,,0.00,,2013-02-26 03:52:00,
2013-02-25 23:02:00,30.0,24.0,30.05,East,82,0.0,1.0,77,0.00,,,0.00,,2013-02-26 04:02:00,
2013-02-25 23:11:00,30.0,24.0,30.05,East,82,0.0,1.0,77,0.00,,,0.00,,2013-02-26 04:11:00,
2013-02-25 23:22:00,30.0,24.0,30.05,East,82,0.0,1.0,77,0.00,,,0.00,,2013-02-26 04:22:00,
2013-02-25 23:32:00,30.0,24.0,30.07,East,83,0.0,1.0,77,0.00,,,0.00,,2013-02-26 04:32:00,
2013-02-25 23:42:00,30.0,24.0,30.07,East,83,0.0,1.0,77,0.00,,,0.00,,2013-02-26 04:42:00,
2013-02-25 23:52:00,29.0,23.0,30.07,East,83,0.0,1.0,78,0.00,,,0.00,,2013-02-26 04:52:00,